McGuire AFB, NJ

2:17 PM EDT on May 23, 2017 (GMT -0400)
McGuire Air Force Base

Weather History for KWRI - October, 2013

Change the Weather History Date:

Monday, October 7, 2013

  Actual Average Record
Temperature  
Mean Temperature 70 °F -  
Max Temperature 80 °F 68 °F 86 °F (2007)
Min Temperature 58 °F 46 °F 35 °F (1999)
Cooling Degree Days 4    
Growing Degree Days 20 (Base 50)    
Moisture  
Dew Point 66 °F    
Average Humidity 87    
Maximum Humidity 100    
Minimum Humidity 69    
Precipitation  
Precipitation 0.29 in - - ()
Sea Level Pressure  
Sea Level Pressure 29.87 in    
Wind  
Wind Speed 10 mph (SSW)    
Max Wind Speed 31 mph    
Max Gust Speed 41 mph    
Visibility 8 miles    
Events Rain    
Averages and records for this station are not official NWS values.
T = Trace of Precipitation, MM = Missing Value Source: NWS Daily Summary

Daily Weather History Graph

Daily Weather History Graph

Search for Another Location

Airport or City:

Trip Planner

Search our weather history database for the weather conditions in past years. The results will help you decide how hot, cold, wet, or windy it might be!

Date:

Astronomy

Oct. 07, 2013 Rise Set
Actual Time 7:00 AM EDT 6:30 PM EDT
Civil Twilight 6:33 AM EDT 6:57 PM EDT
Nautical Twilight 6:02 AM EDT 7:29 PM EDT
Astronomical Twilight 5:30 AM EDT 8:00 PM EDT
Moon 9:48 AM EDT (10/7) 8:13 PM EDT (10/7)
Length of Visible Light 12h 24m
Length of Day
11h 29m
Waxing Crescent, 8% of the Moon is Illuminated
Oct 7
Waxing Crescent
Oct 11
First Quarter
Oct 18
Full
Oct 26
Last Quarter
Nov 3
New

Hourly Weather History & Observations

Time (EDT) Temp. Heat Index Dew Point Humidity Pressure Visibility Wind Dir Wind Speed Gust Speed Precip Events Conditions
12:58 AM 65.8 °F - 65.7 °F 99% 30.00 in 10.0 mi SSE 4.6 mph - N/A   Clear
1:30 AM 66.2 °F - 66.2 °F 100% 29.98 in 9.0 mi SSE 2.3 mph - N/A   Clear
1:41 AM 66.2 °F - 66.2 °F 100% 29.98 in 10.0 mi South 4.6 mph - N/A   Clear
1:58 AM 66.2 °F - 65.8 °F 99% 29.99 in 10.0 mi South 4.6 mph - N/A   Clear
2:58 AM 66.2 °F - 66.0 °F 99% 29.97 in 10.0 mi SSE 3.5 mph - N/A   Clear
3:26 AM 66.2 °F - 66.2 °F 100% 29.95 in 9.0 mi SSE 3.5 mph - N/A   Clear
3:45 AM 66.2 °F - 66.2 °F 100% 29.94 in 10.0 mi SSE 4.6 mph - N/A   Clear
3:58 AM 66.2 °F - 66.0 °F 99% 29.96 in 10.0 mi SSE 4.6 mph - N/A   Clear
4:58 AM 67.6 °F - 67.3 °F 99% 29.94 in 10.0 mi South 6.9 mph - N/A   Partly Cloudy
5:58 AM 68.4 °F - 68.0 °F 99% 29.93 in 10.0 mi South 8.1 mph - N/A   Mostly Cloudy
6:58 AM 68.9 °F - 68.4 °F 98% 29.92 in 10.0 mi South 6.9 mph - N/A   Overcast
7:58 AM 69.6 °F - 68.5 °F 96% 29.90 in 10.0 mi SSE 8.1 mph - N/A   Overcast
8:58 AM 72.1 °F - 68.9 °F 89% 29.89 in 10.0 mi South 9.2 mph - N/A   Overcast
9:30 AM 73.4 °F - 68.0 °F 83% 29.87 in 10.0 mi South 10.4 mph 18.4 mph N/A Rain Light Rain
9:41 AM 73.4 °F - 68.0 °F 83% 29.87 in 10.0 mi South 12.7 mph - N/A   Overcast
9:42 AM 73.4 °F - 68.0 °F 83% 29.87 in 10.0 mi South 13.8 mph 18.4 mph N/A   Overcast
9:47 AM 73.4 °F - 68.0 °F 83% 29.87 in 10.0 mi South 11.5 mph 21.9 mph N/A   Overcast
9:58 AM 74.1 °F - 68.5 °F 83% 29.87 in 7.0 mi South 12.7 mph 24.2 mph 0.00 in   Overcast
10:29 AM 73.4 °F - 69.8 °F 88% 29.86 in 10.0 mi South 13.8 mph 21.9 mph N/A Rain Light Rain
10:40 AM 73.4 °F - 69.8 °F 88% 29.86 in 10.0 mi South 13.8 mph 20.7 mph N/A   Light Drizzle
10:48 AM 71.6 °F - 69.8 °F 94% 29.86 in 5.0 mi South 13.8 mph 21.9 mph N/A Rain Light Rain
10:58 AM 72.0 °F - 70.5 °F 95% 29.87 in 4.0 mi SSW 15.0 mph 21.9 mph 0.01 in Rain Light Rain
11:14 AM 71.6 °F - 71.6 °F 100% 29.85 in 9.0 mi SSW 8.1 mph 20.7 mph N/A Rain Light Rain
11:15 AM 71.6 °F - 71.6 °F 100% 29.85 in 9.0 mi SSW 8.1 mph - N/A Rain Light Rain
11:16 AM 71.6 °F - 71.6 °F 100% 29.85 in 9.0 mi SSW 10.4 mph - N/A Rain Light Rain
11:20 AM 73.4 °F - 71.6 °F 94% 29.84 in 10.0 mi SSW 10.4 mph - N/A   Overcast
11:39 AM 75.2 °F - 71.6 °F 89% 29.84 in 10.0 mi South 13.8 mph 19.6 mph N/A Rain Light Rain
11:54 AM 73.4 °F - 71.6 °F 94% 29.83 in 10.0 mi SSW 15.0 mph 23.0 mph N/A   Overcast
11:58 AM 73.9 °F - 70.9 °F 90% 29.84 in 10.0 mi South 12.7 mph 21.9 mph 0.00 in   Overcast
12:30 PM 77.0 °F - 69.8 °F 78% 29.81 in 10.0 mi South 15.0 mph 27.6 mph N/A   Overcast
12:32 PM 77.0 °F - 69.8 °F 78% 29.81 in 10.0 mi SSW 18.4 mph 27.6 mph N/A   Overcast
12:38 PM 77.0 °F - 69.8 °F 78% 29.81 in 10.0 mi South 17.3 mph 28.8 mph N/A   Overcast
12:58 PM 79.2 °F - 69.3 °F 72% 29.81 in 10.0 mi SSW 18.4 mph 29.9 mph N/A   Overcast
1:29 PM 78.8 °F - 68.0 °F 69% 29.78 in 10.0 mi South 17.3 mph 28.8 mph N/A   Overcast
1:58 PM 78.1 °F - 69.3 °F 74% 29.80 in 10.0 mi SSW 20.7 mph 29.9 mph N/A   Mostly Cloudy
2:00 PM 77.0 °F - 69.8 °F 78% 29.78 in 10.0 mi SSW 18.4 mph 27.6 mph N/A   Mostly Cloudy
2:13 PM 78.8 °F - 68.0 °F 69% 29.78 in 10.0 mi SSW 23.0 mph 31.1 mph N/A   Overcast
2:27 PM 78.8 °F - 69.8 °F 74% 29.78 in 10.0 mi SSW 13.8 mph 25.3 mph N/A   Mostly Cloudy
2:28 PM 78.8 °F - 69.8 °F 74% 29.78 in 10.0 mi SSW 17.3 mph 26.5 mph N/A   Mostly Cloudy
2:58 PM 80.2 °F 83.2 °F 69.1 °F 69% 29.79 in 10.0 mi SSW 13.8 mph 24.2 mph N/A   Mostly Cloudy
3:07 PM 78.8 °F - 69.8 °F 74% 29.78 in 10.0 mi SSW 18.4 mph 24.2 mph N/A Rain Light Rain
3:23 PM 78.8 °F - 68.0 °F 69% 29.79 in 10.0 mi SSW 15.0 mph 23.0 mph N/A   Mostly Cloudy
3:26 PM 78.8 °F - 68.0 °F 69% 29.81 in 10.0 mi WSW 15.0 mph 21.9 mph N/A   Mostly Cloudy
3:29 PM 77.0 °F - 66.2 °F 69% 29.82 in 10.0 mi WSW 25.3 mph 32.2 mph N/A Rain Light Rain
3:34 PM 71.6 °F - 66.2 °F 83% 29.82 in 1.2 mi WSW 31.1 mph 41.4 mph N/A Rain Light Rain
3:35 PM 71.6 °F - 66.2 °F 83% 29.82 in 0.8 mi WSW 26.5 mph 41.4 mph N/A Rain Light Rain
3:37 PM 69.8 °F - 66.2 °F 88% 29.81 in 0.5 mi WSW 24.2 mph 41.4 mph N/A Rain Rain
3:44 PM 68.0 °F - 66.2 °F 94% 29.82 in 0.8 mi WSW 18.4 mph 40.3 mph N/A Rain Light Rain
3:45 PM 68.0 °F - 64.4 °F 88% 29.82 in 1.0 mi WSW 18.4 mph 31.1 mph N/A Rain Light Rain
3:46 PM 68.0 °F - 64.4 °F 88% 29.82 in 1.2 mi WSW 18.4 mph 31.1 mph N/A Rain Light Rain
3:47 PM 68.0 °F - 64.4 °F 88% 29.82 in 1.8 mi WSW 20.7 mph 31.1 mph N/A Rain Light Rain
3:48 PM 68.0 °F - 64.4 °F 88% 29.82 in 3.0 mi WSW 21.9 mph 27.6 mph N/A Rain Light Rain
3:58 PM 67.3 °F - 65.3 °F 93% 29.83 in 4.0 mi WSW 13.8 mph 25.3 mph 0.17 in Rain Light Rain
4:15 PM 68.0 °F - 66.2 °F 94% 29.84 in 10.0 mi SW 10.4 mph - N/A   Overcast
4:20 PM 68.0 °F - 64.4 °F 88% 29.83 in 10.0 mi WSW 15.0 mph - N/A Rain Light Rain
4:27 PM 66.2 °F - 64.4 °F 94% 29.84 in 9.0 mi WSW 17.3 mph - N/A Rain Light Rain
4:58 PM 66.2 °F - 64.4 °F 94% 29.86 in 10.0 mi WSW 13.8 mph - 0.02 in Rain Light Rain
5:10 PM 66.2 °F - 64.4 °F 94% 29.87 in 7.0 mi WSW 12.7 mph - N/A Rain Rain
5:24 PM 66.2 °F - 64.4 °F 94% 29.87 in 8.0 mi WSW 11.5 mph - N/A Rain Light Rain
5:50 PM 66.2 °F - 64.4 °F 94% 29.90 in 6.0 mi WNW 21.9 mph 27.6 mph N/A Rain Rain
5:58 PM 62.4 °F - 59.0 °F 89% 29.90 in 8.0 mi NW 12.7 mph 27.6 mph 0.09 in Rain Light Rain
5:59 PM 60.8 °F - 57.2 °F 88% 29.89 in 8.0 mi WNW 12.7 mph 27.6 mph N/A Rain Light Rain
6:13 PM 60.8 °F - 57.2 °F 88% 29.89 in 10.0 mi NW 5.8 mph - N/A   Overcast
6:58 PM 60.1 °F - 57.2 °F 90% 29.91 in 10.0 mi WNW 4.6 mph - 0.00 in   Overcast
7:00 PM 60.8 °F - 57.2 °F 88% 29.91 in 10.0 mi WNW 4.6 mph - N/A   Overcast
7:58 PM 60.3 °F - 56.5 °F 87% 29.93 in 10.0 mi NW 4.6 mph - N/A   Overcast
8:58 PM 60.3 °F - 56.3 °F 87% 29.94 in 10.0 mi NW 9.2 mph - N/A   Overcast
9:58 PM 59.9 °F - 55.6 °F 86% 29.95 in 10.0 mi WNW 5.8 mph - N/A   Overcast
10:58 PM 60.3 °F - 53.2 °F 78% 29.99 in 10.0 mi NW 6.9 mph - N/A   Overcast
11:58 PM 58.6 °F - 50.7 °F 75% 30.01 in 10.0 mi NW 4.6 mph - N/A   Mostly Cloudy